Location: Unspecified
(0.0000°N, 0.0000°E)
Time: 09:35:57
(UTC+00:00)

ATLAS 5 CENTAUR DEB - Pass Details

Date: 21 February 2026
Orbit: 7342 x 34659 km, 20.8° (Epoch: 6 March)

Event Time Altitude Azimuth Distance (km) Brightness Sun altitude
Rises 19:58:41 0° 247° (WSW) 14,730 ? -25.8°
Reaches altitude 10° 20:07:54 10° 246° (WSW) 14,806 ? -28.1°
Maximum altitude 22:50:13 69° 267° (W) 28,974 ? -66.9°
Enters shadow 01:18:45 58° 292° (WNW) 35,409 ? -70.8°
Exits shadow 02:52:50 49° 297° (WNW) 34,746 ? -49.1°
Drops below altitude 10° 07:47:30 10° 100° (E) 11,139 ? 23.1°
Sets 07:54:27 0° 103° (ESE) 12,156 ? 24.8°
